Weather History for San Angelo, TX

Change the Weather History Date:

Thursday, November 24, 2011

  Actual Average Record
Temperature  
Mean Temperature 58 °F 52 °F  
Max Temperature 75 °F 65 °F 88 °F (1965)
Min Temperature 40 °F 39 °F 18 °F (2003)
Degree Days  
Heating Degree Days 7 13  
Month to date heating degree days 163 222  
Since 1 July heating degree days 228 313  
Cooling Degree Days 0 0  
Month to date cooling degree days 40 15  
Year to date cooling degree days 3753 2499  
Growing Degree Days 6 (Base 50)    
Moisture  
Dew Point 41 °F    
Average Humidity 58    
Maximum Humidity 86    
Minimum Humidity 29    
Precipitation  
Precipitation 0.00 in 0.03 in 1.00 in (1914)
Month to date precipitation 0.30 0.98  
Year to date precipitation 8.22 20.24  
Snow  
Snow 0.00 in 0.00 in 4.00 in (1957)
Month to date snowfall 0.0 0.2  
Since 1 July snowfall 0.0 0.2  
Snow Depth 0.00 in    
Sea Level Pressure  
Sea Level Pressure 30.15 in    
Wind  
Wind Speed 8 mph (South)    
Max Wind Speed 20 mph    
Max Gust Speed 25 mph    
Visibility 10 miles    
Events      
T = Trace of Precipitation, MM = Missing Value Source: NWS Daily Summary

Daily Weather History Graph

Daily Weather History Graph

Search for Another Location

Airport:

Trip Planner

Search our weather history database for the weather conditions in past years. The results will help you decide how hot, cold, wet, or windy it might be!

Date:

Astronomy

Nov. 24, 2011 Rise Set
Actual Time 7:17 AM CST 5:39 PM CST
Civil Twilight 6:50 AM CST 6:06 PM CST
Nautical Twilight 6:21 AM CST 6:35 PM CST
Astronomical Twilight 5:52 AM CST 7:04 PM CST
Moon 6:36 AM CST (11/24) 5:14 PM CST (11/24)
Length of Visible Light 11h 15m
Length of Day
10h 22m
Waning Crescent, 0% of the Moon is Illuminated
Nov 24
Waning Crescent
Nov 25
New
Dec 2
First Quarter
Dec 10
Full
Dec 17
Last Quarter

Hourly Weather History & Observations

Time (CST) Temp. Windchill Dew Point Humidity Pressure Visibility Wind Dir Wind Speed Gust Speed Precip Events Conditions
12:51 AM 46.9 °F - 39.9 °F 77% 30.23 in 10.0 mi Calm Calm - N/A   Clear
1:51 AM 46.9 °F - 39.9 °F 77% 30.22 in 10.0 mi Calm Calm - N/A   Clear
2:51 AM 46.9 °F - 42.1 °F 83% 30.21 in 10.0 mi SSW 3.5 mph - N/A   Clear
3:51 AM 46.0 °F 43.1 °F 41.0 °F 83% 30.20 in 10.0 mi SSE 5.8 mph - N/A   Clear
4:51 AM 43.0 °F - 37.9 °F 82% 30.20 in 10.0 mi Calm Calm - N/A   Clear
5:51 AM 44.1 °F 39.5 °F 39.0 °F 82% 30.22 in 10.0 mi SSW 8.1 mph - N/A   Clear
6:51 AM 39.9 °F - 36.0 °F 86% 30.23 in 10.0 mi Calm Calm - N/A   Clear
7:51 AM 48.9 °F - 44.1 °F 83% 30.22 in 10.0 mi South 8.1 mph - N/A   Clear
8:51 AM 53.1 °F - 44.1 °F 71% 30.23 in 10.0 mi South 9.2 mph - N/A   Clear
9:51 AM 60.1 °F - 46.9 °F 62% 30.22 in 10.0 mi South 12.7 mph 17.3 mph N/A   Clear
10:51 AM 66.9 °F - 46.0 °F 47% 30.20 in 10.0 mi South 9.2 mph - N/A   Clear
11:51 AM 70.0 °F - 42.1 °F 36% 30.17 in 10.0 mi South 15.0 mph 20.7 mph N/A   Clear
12:51 PM 73.0 °F - 39.9 °F 30% 30.13 in 10.0 mi South 17.3 mph 24.2 mph N/A   Clear
1:51 PM 73.0 °F - 41.0 °F 31% 30.11 in 10.0 mi South 12.7 mph 21.9 mph N/A   Clear
2:51 PM 73.9 °F - 39.9 °F 29% 30.09 in 10.0 mi SSW 15.0 mph 21.9 mph N/A   Clear
3:51 PM 73.0 °F - 39.9 °F 30% 30.08 in 10.0 mi South 13.8 mph - N/A   Clear
4:51 PM 71.1 °F - 39.0 °F 31% 30.08 in 10.0 mi South 11.5 mph - N/A   Clear
5:51 PM 68.0 °F - 39.0 °F 35% 30.08 in 10.0 mi SSE 4.6 mph - N/A   Clear
6:51 PM 62.6 °F - 39.2 °F 42% 30.09 in 10.0 mi SE 4.6 mph - N/A   Clear
7:51 PM 64.0 °F - 41.0 °F 43% 30.08 in 10.0 mi South 8.1 mph - N/A   Clear
8:51 PM 64.0 °F - 43.0 °F 46% 30.07 in 10.0 mi South 10.4 mph 20.7 mph N/A   Clear
9:51 PM 62.1 °F - 44.1 °F 52% 30.06 in 10.0 mi South 11.5 mph - N/A   Clear
10:51 PM 61.0 °F - 44.1 °F 54% 30.04 in 10.0 mi South 11.5 mph 17.3 mph N/A   Clear
11:51 PM 60.1 °F - 44.1 °F 55% 30.04 in 10.0 mi South 8.1 mph - N/A   Clear